This demonstration page uses our WeatherBlox Daily Observations layout. Learn more.

Hourly Observations for September 27, 2020

Temp ( °F °C ) Dew Point ( °F °C ) Humidity (%) Winds ( mph kmh ) Pressure ( in mb ) Visibility ( mi km ) Precip ( " mm )
12:51 am 00:51 Clear 74 23.3 38 3.3 27 27 NW 7 11 29.77 1008 10 16.0934 0 0
1:51 am 01:51 Clear 74 23.3 38 3.3 27 27 WNW 9 15 29.77 1008 10 16.0934 0 0
2:51 am 02:51 Clear 68 20 37 2.8 32 32 NW 8 13 29.79 1009 10 16.0934 0 0
3:51 am 03:51 Clear 67 19.4 37 2.8 33 33 NW 6 9 29.8 1009 10 16.0934 0 0
4:51 am 04:51 Clear 65 18.3 37 2.8 36 36 Calm 29.81 1010 10 16.0934 0 0
5:51 am 05:51 Clear 61 16.1 36 2.2 39 39 E 3 6 29.85 1011 10 16.0934 0 0
6:51 am 06:51 Sunny 65 18.3 36 2.2 34 34 SE 3 6 29.85 1011 10 16.0934 0 0
7:51 am 07:51 Sunny 71 21.7 38 3.3 30 30 SSE 5 7 29.86 1011 10 16.0934 0 0
8:51 am 08:51 Sunny 79 26.1 39 3.9 24 24 Calm 29.85 1011 10 16.0934 0 0
9:51 am 09:51 Sunny 86 30 39 3.9 19 19 WNW 10 17 29.84 1010 10 16.0934 0 0
10:51 am 10:51 Sunny 92 33.3 39 3.9 16 16 NW 14 22 29.82 1010 10 16.0934 0 0
11:51 am 11:51 Sunny 95 35 40 4.4 15 15 WNW 15 24 29.8 1009 10 16.0934 0 0
12:51 pm 12:51 Sunny 96 35.6 38 3.3 13 13 WNW 15 24 29.77 1008 10 16.0934 0 0
1:51 pm 13:51 Sunny 98 36.7 34 1.1 11 11 NNW 18 30 29.72 1007 10 16.0934 0 0
2:51 pm 14:51 Sunny 98 36.7 35 1.7 11 11 WNW 18 30 29.72 1007 10 16.0934 0 0
3:51 pm 15:51 Sunny 97 36.1 35 1.7 11 11 NW 16 26 29.72 1006 10 16.0934 0 0
4:51 pm 16:51 Sunny 96 35.6 35 1.7 12 12 WNW 17 28 29.72 1006 10 16.0934 0 0
5:51 pm 17:51 Sunny 92 33.3 35 1.7 13 13 W 17 28 29.73 1007 10 16.0934 0 0
6:51 pm 18:51 Clear 86 30 34 1.1 15 15 WNW 13 20 29.75 1007 10 16.0934 0 0
7:51 pm 19:51 Clear 84 28.9 34 1.1 17 17 NW 15 24 29.76 1008 10 16.0934 0 0
8:51 pm 20:51 Clear 83 28.3 33 0.6 17 17 NW 15 24 29.77 1008 10 16.0934 0 0
9:51 pm 21:51 Clear 81 27.2 33 0.6 18 18 NW 13 20 29.77 1008 10 16.0934 0 0
10:51 pm 22:51 Clear 78 25.6 32 0 19 19 NW 9 15 29.78 1008 10 16.0934 0 0
11:51 pm 23:51 Clear 74 23.3 32 0 21 21 NW 9 15 29.78 1008 10 16.0934 0 0

Powered by AerisWeather